Regional Weather Roundup
Issued by NWS Portland, ME

Home | Current Version | Previous Version | Text Only | Print | Product List | Glossary On
Versions: 1 2 3 4 5 6 7 8 9 10 11 12 13 14 15 16 17 18 19 20 21 22 23 24 25 26 27 28 29 30 31 32 33 34 35 36 37 38 39 40 41 42 43 44 45 46 47 48 49 50
000
ASUS41 KGYX 221710
RWRGYX
WEATHER ROUNDUP FOR MAINE AND NEW HAMPSHIRE
NATIONAL WEATHER SERVICE GRAY ME
100 PM EDT THU JUN 22 2017

MEZ002-005-006-010-012-015-018-020-021-024-026-027-029-221800-
MAINE

CITY           SKY/WX    TMP DP  RH WIND       PRES   REMARKS
PORTLAND       PTSUNNY   79  51  37 SW9G20    29.90F
SANFORD        MOSUNNY   79  52  38 W10       29.92F
BAR HARBOR     PTSUNNY   76  51  41 W9        29.87F
WISCASSET      CLOUDY    76  51  41 VRB7      29.91S
ROCKLAND       MOSUNNY   74  52  46 W16G23    29.88S
FRYEBURG       MOSUNNY   78  47  33 VRB7      29.91F
LEWISTONAUBURN MOSUNNY   77  49  37 SW10G18   29.90F
AUGUSTA        PTSUNNY   76  46  34 W10G20    29.89S
WATERVILLE     MOSUNNY   75  50  41 SW8G17    29.86S
BANGOR         PTSUNNY   75  50  41 W13G18    29.86F
GREENVILLE       N/A     71  45  39 NW10G21   29.86S
MILLINOCKET    LGT RAIN  74  47  38 W14G24    29.84R
HOULTON        SUNNY     73  44  35 W15G26    29.77S
PRESQUE ISLE   SUNNY     71  46  40 W15G23    29.78R
FRENCHVILLE    MOSUNNY   68  45  43 NW12G22   29.76S
CARIBOU        MOSUNNY   71  45  39 NW12G23   29.76R
$$

NHZ002-005-008-009-011-012-014-221800-
NEW HAMPSHIRE

CITY           SKY/WX    TMP DP  RH WIND       PRES   REMARKS
PORTSMOUTH     MOSUNNY   80  51  36 W9        29.91F
ROCHESTER      PTSUNNY   75  50  41 NW7       29.92F
NASHUA         SUNNY     80  50  34 W13       29.93F
MANCHESTER     PTSUNNY   81  45  28 W10       29.92F
CONCORD        PTSUNNY   80  52  37 W10G18    29.93F
LACONIA        PTSUNNY  N/A N/A N/A SW10      29.93
PLYMOUTH       CLOUDY    74  51  44 NW6       29.93S
BERLIN         PTSUNNY   75  47  36 VRB6      29.93F
WHITEFIELD     MOSUNNY   73  48  41 W9        29.94F
JAFFREY        SUNNY     77  52  41 NW10      29.97F
KEENE          MOSUNNY   77  51  40 W7G17     29.95F
LEBANON        MOSUNNY   76  50  40 NW9       29.93F
MT WASHINGTON  PTSUNNY   46  41  81 W33G39      N/A
$$

VTZ005-007-008-221800-
VERMONT

CITY           SKY/WX    TMP DP  RH WIND       PRES   REMARKS
ST JOHNSBURY     N/A     74  48  39 MISG      29.91F
MONTPELIER     MOSUNNY   72  52  49 VRB7      29.98F
BURLINGTON     MOSUNNY   76  53  44 VRB6      29.92F
$$

MAZ007-012-024-CTZ003-RIZ002-NYZ038-NYZ072-221800-
SOUTHERN NEW ENGLAND AND NY

CITY           SKY/WX    TMP DP  RH WIND       PRES   REMARKS
BOSTON         MOSUNNY   76  56  49 SE9       29.92F
WORCESTER      SUNNY     75  48  38 W13       29.98F
NANTUCKET      SUNNY     70  60  70 SW12      29.98R
PROVIDENCE     MOSUNNY   81  53  37 W9        29.95F
HARTFORD       MOSUNNY   81  51  35 SW14      29.96F
ALBANY         PTSUNNY   77  54  44 W12G18    29.96F
NEW YORK CITY  MOSUNNY   82  56  40 S16       29.97F
$$

ANZ081-ANZ082-ANZ150-NHZ014-MEZ023>029-221800-
COASTAL MARINE OBSERVATIONS

STATION/POSITION TIME  TEMP    WIND        PRES    WAVE
                       AIR SEA DIR/SP/G            HT/PER
                 (UTC) (F)     (DEG/KT/KT) (MB)    (FT/S)
MATINICUS ROCK   1600   58     230/ 16/ 17 1012.4F
ISLE OF SHOALS   1600   69     190/ 11/ 11 1013.5S
JEFFREYS LEDGE   1606      60                N/A     2/ 7
CASHES LEDGE BUO 1550   63 59              1013.5    2/ 6
GEORGES BANK BUO 1550   56 54              1014.3    3/ 7
$$

.............KEY..............
   WCI - WIND CHILL
   TC  - TEMPERATURE IN CELSIUS
   VSB - VISIBILITY IN MILES
   HX  - HEAT INDEX
   FAIR- INDICATES FEW OR NO CLOUDS BELOW 12,000 FT, WITH NO
         SIGNIFICANT WEATHER AND/OR OBSTRUCTIONS TO VISIBILITY.






USA.gov is the U.S. government's official web portal to all federal, state and local government web resources and services.